SAR-LUPE 2

Last updated on Sat Jun 27 2026 00:03:47 GMT+0000 (Coordinated Universal Time)

1 31797U 07030A 26177.76726881 .00020775 00000+0 35183-3 0 9998 2 31797 98.1045 283.3969 0002472 182.4782 177.6457 15.51588488 58422
UTC large
Height (km)
Speed (km/s)
/
Latitude / Longitude
Inclination (degrees)
Orbital Period (minutes)
Azimuth
Elevation
Range (km)
Doppler Factor

Next 0 passes for location: London (51.5072 / 0.1276)

No passes found over London.
SAR-LUPE 2